DateTime,F1_A11,F1_S11,BsB_S11,BsG_S11,BsR_S11,BbsB_S11,BbsG_S11,BbsR_S11,BaB_A11,BaG_A11,BaR_A11,T_S11,U_S11,P_S11,T1_A11
2016-01-23T00:00:00Z,0000380,21000600,,,,,,,,,,25.7,00.0,0636.7,34.7
2016-01-23T00:01:00Z,0000380,21000600,,,,,,,,,,25.7,00.0,0636.7,34.7
2016-01-23T00:02:00Z,0000380,21000600,,,,,,,,,,25.7,00.0,0636.7,34.7
2016-01-23T00:03:00Z,0000380,61000600,,,,,,,,,,25.7,00.1,0636.7,34.7
2016-01-23T00:04:00Z,0000380,41000600,0000.38,0000.39,-000.27,-000.40,-000.02,-000.08,0000.04,-000.04,0000.12,25.8,00.2,0637.4,34.7
2016-01-23T00:05:00Z,0000380,01000600,-000.68,-000.30,0000.31,-000.55,0000.16,-000.08,0000.08,0000.15,-000.02,25.8,00.2,0637.5,34.7
2016-01-23T00:06:00Z,0000380,01000600,-000.38,0000.17,-000.04,0000.07,-000.18,0000.03,-000.07,-000.11,-000.12,25.8,00.2,0637.5,34.7
2016-01-23T00:07:00Z,0000380,01000600,0000.02,-000.09,0000.04,-000.05,0000.18,-000.02,0000.19,0000.25,0000.10,25.8,00.2,0637.5,34.7
2016-01-23T00:08:00Z,0000380,01000600,0000.88,0000.06,0000.62,-000.65,-000.23,0000.02,-000.01,-000.09,0000.01,25.8,00.2,0637.4,34.7
2016-01-23T00:09:00Z,0000380,01000600,0000.09,-000.08,0000.20,-000.30,-000.53,-000.33,-000.06,0000.22,0000.01,25.8,00.2,0637.4,34.7
2016-01-23T00:10:00Z,0000380,01000600,-000.66,0000.28,-000.04,0000.56,-000.02,-000.25,0000.11,-000.10,-000.02,25.8,00.2,0637.4,34.7
2016-01-23T00:11:00Z,0000380,01000600,-000.73,0000.02,0000.41,0000.68,0000.07,0000.12,0000.02,0000.05,0000.06,25.8,00.2,0637.4,34.7
2016-01-23T00:12:00Z,0000380,01000600,-000.40,-000.29,0001.18,0000.15,-000.31,-000.03,0000.01,-000.03,0000.03,25.8,00.1,0637.4,34.7
2016-01-23T00:13:00Z,0000380,01000600,0001.02,-000.11,0000.19,0000.26,-000.02,0000.12,0000.42,-000.00,0000.07,25.8,00.2,0637.4,34.7
2016-01-23T00:14:00Z,0000380,01000600,-000.67,0000.33,0000.38,0000.35,-000.07,0000.07,-000.06,0000.14,0000.13,25.8,00.1,0637.4,34.7
2016-01-23T00:15:00Z,0000380,01000600,-001.49,-000.08,-000.17,-000.41,-000.36,0000.03,-000.11,0000.17,0000.12,25.8,00.1,0637.4,34.6
2016-01-23T00:16:00Z,0000380,01000600,0000.06,-000.15,-000.02,-000.26,-000.13,-000.07,0000.05,-000.26,-000.24,25.8,00.2,0637.4,34.6
2016-01-23T00:17:00Z,0000380,01000600,-000.45,0000.24,-000.18,-000.02,0000.02,-000.18,0000.04,0000.14,0000.19,25.8,00.1,0637.3,34.6
2016-01-23T00:18:00Z,0000380,01000600,0000.30,-000.86,0000.57,0000.38,0000.20,0000.30,0000.25,0000.17,0000.26,25.8,00.1,0637.4,34.6
2016-01-23T00:19:00Z,0000380,01000600,0000.52,0000.44,0000.78,0000.20,-000.21,-000.03,-000.03,0000.10,-000.23,25.8,00.1,0637.4,34.6
2016-01-23T00:20:00Z,0000380,01000600,0000.25,-000.36,0000.19,0000.35,-000.16,-000.02,-000.03,0000.01,0000.16,25.8,00.1,0637.4,34.6
2016-01-23T00:21:00Z,0000380,01000600,0000.35,0000.20,-000.06,-000.23,0000.16,0000.18,0000.15,0000.01,0000.13,25.8,00.1,0637.4,34.6
2016-01-23T00:22:00Z,0000380,01000600,-000.04,0000.00,-000.21,0000.03,0000.23,-000.02,0000.10,0000.12,0000.03,25.8,00.1,0637.4,34.6
2016-01-23T00:23:00Z,0000380,01000600,-000.73,0000.40,0000.24,-000.53,-000.18,-000.25,0000.04,0000.10,-000.05,25.8,00.1,0637.4,34.6
2016-01-23T00:24:00Z,0000380,01000600,0000.60,0001.08,-000.05,-000.28,0000.07,-000.02,-000.00,-000.08,0000.25,25.8,00.1,0637.5,34.6
2016-01-23T00:25:00Z,0000380,01000600,-000.61,0000.29,0000.22,0000.05,0000.23,-000.33,0000.08,0000.03,0000.13,25.8,00.1,0637.4,34.6
2016-01-23T00:26:00Z,0000380,01000600,0001.10,0000.46,0000.26,-000.22,0000.08,-000.35,-000.13,0000.13,-000.10,25.8,00.1,0637.4,34.6
2016-01-23T00:27:00Z,0000380,01000600,-000.58,-000.33,0000.71,0000.25,-000.20,0000.03,0000.09,-000.14,-000.08,25.8,00.1,0637.4,34.6
2016-01-23T00:28:00Z,0000380,01000600,-000.32,0000.40,0000.00,-000.36,0000.00,-000.23,-000.02,-000.05,-000.26,25.8,00.1,0637.4,34.6
2016-01-23T00:29:00Z,0000380,01000600,-000.47,0000.82,0000.16,0000.00,0000.13,-000.13,0000.05,0000.33,0000.35,25.8,00.1,0637.4,34.6
2016-01-23T00:30:00Z,0000380,01000600,-000.01,0000.36,-000.24,0000.36,0000.35,-000.20,-000.01,-000.01,-000.26,25.8,00.1,0637.4,34.7
2016-01-23T00:31:00Z,0000380,01000600,-001.28,-000.13,-000.15,-000.41,0000.03,0000.05,0000.25,0000.04,0000.46,25.8,00.1,0637.4,34.7
2016-01-23T00:32:00Z,0000380,01000600,0000.41,0000.00,0000.42,-000.20,-000.20,0000.20,0000.19,-000.01,-000.15,25.8,00.1,0637.3,34.7
2016-01-23T00:33:00Z,0000380,01000600,0000.13,0000.79,0000.60,0000.30,0000.07,0000.02,-000.25,-000.01,-000.32,25.8,00.1,0637.2,34.7
2016-01-23T00:34:00Z,0000380,01000600,0000.17,-000.25,0000.24,0000.10,0000.30,-000.28,0000.18,-000.04,0000.47,25.8,00.1,0637.2,34.7
2016-01-23T00:35:00Z,0000380,01000600,-000.99,0000.25,0000.47,-000.17,0000.18,0000.20,-000.06,0000.17,0000.07,25.8,00.1,0637.2,34.7
2016-01-23T00:36:00Z,0000380,01000600,-000.96,0000.53,0000.31,-000.18,0000.16,-000.20,0000.11,0000.08,-000.14,25.8,00.1,0637.2,34.7
2016-01-23T00:37:00Z,0000380,01000600,0000.79,0000.60,0000.55,0000.02,-000.07,-000.03,0000.23,0000.10,0000.23,25.8,00.1,0637.1,34.7
2016-01-23T00:38:00Z,0000380,01000600,0000.86,0000.17,-000.17,0000.36,-000.33,-000.23,0000.12,0000.09,-000.07,25.8,00.1,0637.1,34.7
2016-01-23T00:39:00Z,0000380,01000600,0000.03,0000.61,0000.28,0000.15,0000.21,0000.00,0000.10,-000.04,0000.07,25.8,00.2,0637.1,34.7
2016-01-23T00:40:00Z,0000380,01000600,-000.53,0000.45,-000.10,0000.48,0000.18,-000.28,0000.08,0000.16,-000.20,25.8,00.2,0637.2,34.7
2016-01-23T00:41:00Z,0000380,01000600,-000.07,0000.29,-000.08,-000.15,-000.38,-000.35,0000.26,-000.00,0000.23,25.8,00.2,0637.2,34.7
2016-01-23T00:42:00Z,0000380,01000600,-000.02,0000.27,0000.25,0000.31,-000.26,0000.13,0000.05,0000.23,0000.09,25.8,00.3,0637.2,34.7
2016-01-23T00:43:00Z,0000380,01000600,-000.80,0000.18,0000.19,-000.31,-000.02,-000.13,0000.19,0000.05,-000.27,25.8,00.3,0637.1,34.7
2016-01-23T00:44:00Z,0000380,01000600,0000.37,0000.12,0000.36,-000.43,0000.31,-000.13,-000.05,-000.05,0000.46,25.8,00.2,0637.0,34.7
2016-01-23T00:45:00Z,0000380,01000600,0000.20,-000.28,0000.14,-000.51,-000.35,-000.02,0000.01,0000.10,-000.03,25.8,00.2,0637.0,34.7
2016-01-23T00:46:00Z,0000380,01000600,0000.63,0000.39,-000.16,0000.43,0000.12,-000.68,0000.14,0000.12,0000.10,25.8,00.3,0637.0,34.7
2016-01-23T00:47:00Z,0000380,01000600,-000.39,-000.05,0000.15,0000.10,0000.28,0000.12,0000.16,0000.15,0000.07,25.8,00.3,0637.1,34.7
2016-01-23T00:48:00Z,0000380,01000600,0000.23,-000.02,0000.25,-000.13,0000.13,-000.13,0000.09,-000.01,-000.20,25.8,00.3,0637.1,34.7
2016-01-23T00:49:00Z,0000380,01000600,-000.39,0000.22,0000.33,0000.12,0000.00,-000.17,0000.23,0000.16,-000.09,25.8,00.3,0637.1,34.7
2016-01-23T00:50:00Z,0000380,01000600,-000.76,-000.05,0000.13,0000.35,-000.36,-000.15,-000.09,-000.04,0000.40,25.8,00.3,0637.0,34.7
2016-01-23T00:51:00Z,0000380,01000600,-000.49,0000.54,0000.17,-000.28,0000.23,0000.20,0000.23,0000.16,0000.06,25.8,00.4,0636.9,34.7
2016-01-23T00:52:00Z,0000380,01000600,0000.31,0000.84,0000.69,-000.10,0000.15,0000.28,0000.07,0000.12,-000.02,25.8,00.4,0636.9,34.7
2016-01-23T00:53:00Z,0000380,01000600,0000.04,0000.00,0000.85,0000.17,0000.16,-000.23,0000.14,-000.15,-000.34,25.8,00.4,0636.9,34.7
2016-01-23T00:54:00Z,0000380,01000600,-000.26,0000.95,0000.33,-000.05,-000.18,-000.13,0000.10,0000.28,0000.31,25.8,00.4,0637.0,34.7
2016-01-23T00:55:00Z,0000380,01000600,-000.06,-000.06,0000.14,0000.30,0000.07,0000.08,0000.15,0000.21,-000.08,25.8,00.4,0636.9,34.7
2016-01-23T00:56:00Z,0000380,01000600,-000.70,0000.00,0000.39,-000.33,-000.08,0000.18,0000.16,-000.17,-000.00,25.8,00.5,0636.9,34.7
2016-01-23T00:57:00Z,0000380,41000600,,,,,,,,,,,,0637.0,34.7
2016-01-23T00:58:00Z,0000380,61000600,,,,,,,,,,25.7,00.3,0636.2,34.7
2016-01-23T00:59:00Z,0000380,21000600,,,,,,,,,,25.7,00.3,0636.2,34.7
2016-01-23T01:00:00Z,0000380,21000600,,,,,,,,,,25.7,00.3,0636.2,34.7
2016-01-23T01:01:00Z,0000380,21000600,,,,,,,,,,25.7,00.3,0636.2,34.7
2016-01-23T01:02:00Z,0000380,21000600,,,,,,,,,,25.7,00.3,0636.2,34.7
2016-01-23T01:03:00Z,0000380,61000600,,,,,,,,,,25.7,00.3,0636.2,34.7
2016-01-23T01:04:00Z,0000380,41000600,0000.99,0000.34,0000.37,-000.17,0000.21,-000.02,-000.10,-000.13,-000.17,25.8,00.4,0636.8,34.7
2016-01-23T01:05:00Z,0000380,01000600,0000.55,-000.13,0000.25,0000.12,0000.56,-000.30,0000.09,0000.23,0000.26,25.8,00.4,0636.8,34.7
2016-01-23T01:06:00Z,0000380,01000600,0000.13,0000.29,0000.04,-000.46,0000.35,0000.02,-000.06,0000.03,-000.01,25.8,00.5,0636.8,34.7
2016-01-23T01:07:00Z,0000380,01000600,0000.19,0000.86,0000.31,-000.02,0000.56,0000.05,0000.24,0000.04,-000.08,25.8,00.4,0636.7,34.7
2016-01-23T01:08:00Z,0000380,01000600,0001.05,0000.80,0000.19,-000.56,0000.26,0000.12,-000.14,-000.12,0000.13,25.8,00.5,0636.7,34.7
2016-01-23T01:09:00Z,0000380,01000600,0000.76,0000.33,0000.33,0000.00,0000.05,-000.20,0000.29,0000.16,0000.02,25.8,00.4,0636.7,34.7
2016-01-23T01:10:00Z,0000380,01000600,0000.14,-000.06,0000.35,-000.17,0000.18,0000.17,-000.03,0000.10,0000.04,25.9,00.4,0636.8,34.7
2016-01-23T01:11:00Z,0000380,01000600,0000.55,0000.00,-000.20,-000.41,0000.23,0000.03,-000.15,0000.03,-000.14,25.9,00.4,0636.8,34.7
2016-01-23T01:12:00Z,0000380,01000600,0000.27,0000.79,0000.14,0000.22,-000.25,-000.02,0000.06,-000.05,0000.08,25.9,00.4,0636.8,34.7
2016-01-23T01:13:00Z,0000380,01000600,0001.22,-000.46,0000.43,-000.25,0000.10,-000.33,0000.13,0000.05,-000.07,26.0,00.4,0636.8,34.7
2016-01-23T01:14:00Z,0000380,01000600,0000.09,-000.28,0000.45,-000.46,0000.03,0000.10,0000.04,0000.08,0000.33,26.0,00.3,0636.8,34.7
2016-01-23T01:15:00Z,0000380,01000600,0000.60,0000.52,0000.33,0000.25,0000.15,-000.05,-000.16,0000.06,0000.14,26.0,00.4,0636.8,34.7
2016-01-23T01:16:00Z,0000380,01000600,0000.44,-000.33,0000.60,-000.05,0000.08,-000.36,0000.08,0000.09,-000.32,26.0,00.3,0636.8,34.7
2016-01-23T01:17:00Z,0000380,01000600,0000.76,0000.56,-000.23,-000.63,0000.17,0000.07,0000.18,-000.03,0000.30,26.0,00.4,0636.8,34.7
2016-01-23T01:18:00Z,0000380,01000600,0000.57,0000.00,0000.10,-000.05,0000.33,-000.35,0000.14,0000.11,0000.19,26.0,00.3,0636.8,34.7
2016-01-23T01:19:00Z,0000380,01000600,0000.53,0000.41,0000.47,0000.31,-000.08,-000.05,0000.09,0000.22,-000.07,26.0,00.3,0636.8,34.7
2016-01-23T01:20:00Z,0000380,01000600,0000.24,0000.45,0000.43,-000.71,0000.25,0000.05,0000.17,-000.23,-000.17,26.0,00.4,0636.8,34.7
2016-01-23T01:21:00Z,0000380,01000600,0000.46,0000.60,-000.14,-000.13,0000.45,0000.00,-000.12,0000.11,0000.40,26.0,00.3,0636.8,34.7
2016-01-23T01:22:00Z,0000380,01000600,0000.00,-000.23,0000.35,0000.10,0000.46,0000.07,0000.06,0000.07,-000.30,26.0,00.3,0636.8,34.7
2016-01-23T01:23:00Z,0000380,01000600,0000.45,-000.35,0000.16,-000.53,0000.13,-000.53,0000.07,0000.08,0000.38,26.0,00.3,0636.8,34.7
2016-01-23T01:24:00Z,0000380,01000600,0000.16,0000.38,0000.31,0000.23,-000.05,-000.17,0000.01,-000.02,-000.24,26.0,00.3,0636.8,34.7
2016-01-23T01:25:00Z,0000380,01000600,0000.35,-000.23,0000.39,-000.33,0000.36,-000.25,0000.02,0000.19,0000.25,26.0,00.2,0636.8,34.7
2016-01-23T01:26:00Z,0000380,01000600,0000.33,0000.41,0000.21,-000.12,0000.17,-000.05,0000.08,-000.29,-000.20,26.0,00.3,0636.8,34.7
2016-01-23T01:27:00Z,0000380,01000600,0000.28,-000.31,0000.32,0000.10,0000.21,-000.13,-000.04,0000.26,0000.02,26.0,00.3,0636.8,34.7
2016-01-23T01:28:00Z,0000380,01000600,0000.81,0000.58,0000.10,0000.38,-000.05,-000.30,0000.19,0000.12,0000.15,26.0,00.2,0636.8,34.7
2016-01-23T01:29:00Z,0000380,01000600,0000.85,0000.31,0000.07,-000.35,0000.25,-000.02,0000.04,-000.03,-000.03,26.0,00.2,0636.7,34.7
2016-01-23T01:30:00Z,0000380,01000600,0000.76,0000.65,0000.29,-000.10,0000.25,0000.37,0000.02,0000.08,-000.05,26.1,00.2,0636.7,34.7
2016-01-23T01:31:00Z,0000380,01000600,0000.39,0000.63,0000.30,-000.10,0000.18,0000.08,0000.12,-000.03,0000.38,26.0,00.2,0636.7,34.7
2016-01-23T01:32:00Z,0000380,01000600,0000.51,0000.21,0000.43,-000.22,-000.15,-000.17,-000.02,0000.04,-000.33,26.1,00.3,0636.7,34.7
2016-01-23T01:33:00Z,0000380,01000600,0000.17,-000.09,0000.02,0000.08,0000.13,-000.15,0000.06,0000.14,0000.07,26.0,00.2,0636.7,34.7
2016-01-23T01:34:00Z,0000380,01000600,0000.68,0000.36,-000.14,0000.58,0000.15,-000.13,-000.12,0000.08,0000.04,26.1,00.2,0636.7,34.7
2016-01-23T01:35:00Z,0000380,01000600,0000.27,0000.18,0000.41,0000.18,0000.40,-000.33,0000.01,-000.09,-000.07,26.1,00.2,0636.7,34.7
2016-01-23T01:36:00Z,0000380,01000600,0000.62,-000.22,0000.29,0000.20,0000.17,-000.03,0000.02,-000.03,0000.27,26.1,00.2,0636.7,34.7
2016-01-23T01:37:00Z,0000380,01000600,0000.83,0000.74,0000.44,0000.10,0000.10,0000.02,0000.02,-000.04,-000.29,26.1,00.2,0636.8,34.7
2016-01-23T01:38:00Z,0000380,01000600,0000.35,-000.02,0000.26,-000.28,0000.28,-000.18,-000.09,0000.07,0000.38,26.1,00.2,0636.7,34.7
2016-01-23T01:39:00Z,0000380,01000600,-000.14,-000.36,-000.27,0000.23,0000.23,-000.18,0000.14,0000.15,-000.22,26.1,00.2,0636.7,34.7
2016-01-23T01:40:00Z,0000380,01000600,0000.46,0000.12,-000.06,-000.71,-000.36,-000.08,0000.18,0000.08,0000.20,26.1,00.2,0636.7,34.7
2016-01-23T01:41:00Z,0000380,01000600,0000.81,0000.37,0000.39,-000.43,-000.05,0000.07,0000.11,-000.12,-000.05,26.2,00.1,0636.7,34.7
2016-01-23T01:42:00Z,0000380,01000600,0001.09,-000.44,0000.17,0000.12,-000.07,-000.30,-000.07,0000.12,-000.10,26.1,00.2,0636.7,34.7
2016-01-23T01:43:00Z,0000380,01000600,0000.59,-000.09,-000.44,0000.33,0000.35,-000.12,0000.03,0000.01,0000.02,26.2,00.1,0636.7,34.7
2016-01-23T01:44:00Z,0000380,01000600,0000.94,-000.09,0000.16,-000.83,0000.18,-000.10,0000.17,0000.02,0000.34,26.2,00.2,0636.6,34.7
2016-01-23T01:45:00Z,0000380,01000600,0000.20,0000.11,-000.03,0000.35,0000.28,-000.35,-000.01,0000.02,-000.03,26.1,00.2,0636.6,34.7
2016-01-23T01:46:00Z,0000380,01000600,0000.10,0000.23,0000.40,0000.36,-000.07,-000.20,0000.02,0000.07,-000.11,26.2,00.1,0636.6,34.7
2016-01-23T01:47:00Z,0000380,01000600,0000.56,0000.97,-000.03,-000.07,0000.03,-000.33,-000.03,-000.02,0000.01,26.1,00.1,0636.7,34.7
2016-01-23T01:48:00Z,0000380,01000600,0000.74,0000.28,0000.65,-000.13,0000.21,0000.27,0000.09,0000.14,0000.07,26.1,00.1,0636.7,34.7
2016-01-23T01:49:00Z,0000380,01000600,0000.13,0000.17,0000.29,-000.63,-000.08,0000.00,0000.02,-000.12,0000.16,26.1,00.1,0636.7,34.7
2016-01-23T01:50:00Z,0000380,01000600,0000.62,-000.10,-000.22,-000.40,-000.03,0000.18,-000.02,0000.11,-000.11,26.2,00.1,0636.7,34.7
2016-01-23T01:51:00Z,0000380,01000600,0000.14,0000.24,-000.31,-000.32,0000.03,0000.05,-000.15,0000.04,0000.27,26.1,00.1,0636.7,34.7
2016-01-23T01:52:00Z,0000380,01000600,0001.10,0000.13,0000.22,-000.30,-000.07,0000.27,0000.02,-000.06,-000.47,26.1,00.1,0636.6,34.7
2016-01-23T01:53:00Z,0000380,01000600,0000.04,-000.21,0000.31,0000.60,0000.33,-000.13,0000.05,0000.08,0000.43,26.1,00.1,0636.7,34.7
2016-01-23T01:54:00Z,0000380,01000600,0000.17,0000.18,0000.18,-000.03,-000.64,-000.10,0000.13,-000.07,-000.13,26.1,00.1,0636.7,34.7
2016-01-23T01:55:00Z,0000380,01000600,0000.50,0000.03,0000.04,-000.17,-000.18,-000.07,0000.01,0000.06,0000.03,26.1,00.1,0636.7,34.7
2016-01-23T01:56:00Z,0000380,01000600,-001.10,0000.28,0000.75,-000.28,-000.17,-000.23,-000.07,0000.13,-000.08,26.1,00.1,0636.8,34.7
2016-01-23T01:57:00Z,0000380,41000600,,,,,,,,,,,,0636.8,34.7
2016-01-23T01:58:00Z,0000380,61000600,,,,,,,,,,26.0,00.0,0636.0,34.7
2016-01-23T01:59:00Z,0000380,21000600,,,,,,,,,,26.0,00.0,0636.0,34.7
2016-01-23T02:00:00Z,0000380,21000600,,,,,,,,,,26.0,00.0,0636.0,34.7
2016-01-23T02:01:00Z,0000380,21000600,,,,,,,,,,26.0,00.0,0636.0,34.7
2016-01-23T02:02:00Z,0000380,21000600,,,,,,,,,,26.0,00.0,0636.0,34.7
2016-01-23T02:03:00Z,0000380,61000600,,,,,,,,,,26.0,00.0,0636.0,34.7
2016-01-23T02:04:00Z,0000380,41000600,0000.90,0000.24,-000.25,-000.48,0000.10,0000.00,-000.41,0000.25,-000.09,26.1,00.0,0636.7,34.7
2016-01-23T02:05:00Z,0000380,01000600,0000.49,-000.04,0000.01,0000.17,-000.21,0000.30,0000.22,-000.12,0000.05,26.1,00.0,0636.8,34.7
2016-01-23T02:06:00Z,0000380,01000600,0000.86,0000.52,-000.08,0000.28,-000.45,0000.28,-000.01,0000.17,-000.27,26.2,00.0,0636.8,34.7
2016-01-23T02:07:00Z,0000380,01000600,0000.58,0000.49,0000.12,-000.13,-000.43,0000.27,0000.05,-000.02,0000.18,26.1,00.0,0636.7,34.7
2016-01-23T02:08:00Z,0000380,01000600,0000.05,0000.09,0000.07,0000.27,0000.05,0000.12,-000.05,-000.01,-000.04,26.2,00.0,0636.7,34.7
2016-01-23T02:09:00Z,0000380,01000600,0001.55,0000.39,0000.13,-000.32,-000.07,0000.33,-000.02,0000.19,0000.08,26.2,00.0,0636.7,34.7
2016-01-23T02:10:00Z,0000380,01000600,0000.80,0000.70,0000.31,-000.17,-000.31,0000.03,0000.33,-000.12,0000.19,26.1,00.0,0636.7,34.7
2016-01-23T02:11:00Z,0000380,01000600,0000.95,-000.02,0000.21,-000.17,-000.43,0000.07,-000.00,0000.21,-000.07,26.2,00.0,0636.7,34.7
2016-01-23T02:12:00Z,0000380,01000600,0000.86,0000.37,-000.19,0000.30,0000.40,-000.08,0000.16,-000.02,0000.07,26.1,00.0,0636.7,34.7
2016-01-23T02:13:00Z,0000380,01000600,0000.08,-000.05,0000.16,-000.25,-000.25,-000.15,0000.03,0000.13,-000.04,26.1,00.0,0636.7,34.7
2016-01-23T02:14:00Z,0000380,01000600,0000.80,0000.32,0000.08,-000.50,-000.26,0000.05,0000.10,0000.01,-000.06,26.1,00.0,0636.6,34.7
2016-01-23T02:15:00Z,0000380,01000600,0001.36,0000.08,0000.16,-000.17,0000.10,-000.10,-000.14,0000.14,0000.35,26.1,00.0,0636.6,34.7
2016-01-23T02:16:00Z,0000380,01000600,-000.42,0000.17,0000.20,0000.41,-000.30,0000.42,0000.11,-000.14,-000.19,26.1,00.0,0636.6,34.7
2016-01-23T02:17:00Z,0000380,01000600,0000.67,0000.32,-000.08,0000.50,0000.00,0000.00,0000.03,0000.07,0000.20,26.1,00.0,0636.7,34.7
2016-01-23T02:18:00Z,0000380,01000600,0000.77,0000.51,0000.45,-000.35,-000.46,0000.40,-000.05,0000.02,-000.28,26.1,00.0,0636.7,34.7
2016-01-23T02:19:00Z,0000380,01000600,0000.89,0000.07,0000.05,-000.07,-000.71,0000.13,0000.12,-000.04,0000.36,26.1,00.0,0636.7,34.7
2016-01-23T02:20:00Z,0000380,01000600,0000.11,-000.20,0000.22,-000.02,-000.13,0000.53,0000.06,0000.01,0000.08,26.1,00.0,0636.7,34.7
2016-01-23T02:21:00Z,0000380,01000600,0000.46,0000.07,0000.00,0000.08,0000.02,-000.03,0000.09,0000.12,-000.10,26.1,00.0,0636.8,34.7
2016-01-23T02:22:00Z,0000380,01000600,-000.21,0000.20,0000.28,-001.14,-000.28,0000.07,0000.01,0000.15,-000.04,26.1,00.0,0636.8,34.7
2016-01-23T02:23:00Z,0000380,01000600,0000.87,0000.05,-000.15,-000.03,0000.12,0000.08,-000.05,0000.02,0000.32,26.2,00.0,0636.8,34.7
2016-01-23T02:24:00Z,0000380,01000600,-000.06,0000.02,0000.20,-000.10,-000.31,0000.22,0000.34,0000.08,-000.05,26.2,00.0,0636.8,34.7
2016-01-23T02:25:00Z,0000380,01000600,0000.28,-000.17,0000.07,-000.28,-000.28,0000.20,0000.07,0000.17,0000.19,26.2,00.0,0636.8,34.7
2016-01-23T02:26:00Z,0000380,01000600,0000.36,0000.16,-000.02,-000.40,-000.23,-000.08,-000.30,0000.02,0000.31,26.2,00.0,0636.8,34.7
2016-01-23T02:27:00Z,0000380,01000600,-000.13,0000.02,-000.04,0000.10,0000.10,-000.10,0000.09,0000.16,-000.13,26.2,00.0,0636.9,34.7
2016-01-23T02:28:00Z,0000380,01000600,0000.12,0000.05,-000.01,-000.08,-000.35,0000.10,0000.29,-000.09,0000.05,26.2,00.0,0636.9,34.7
2016-01-23T02:29:00Z,0000380,01000600,0000.71,0000.33,0000.02,0000.33,-000.21,0000.22,0000.02,0000.04,-000.19,26.2,00.0,0636.8,34.7
2016-01-23T02:30:00Z,0000380,01000600,0000.63,-000.48,0000.48,-000.40,-000.17,0000.30,0000.02,0000.01,0000.16,26.2,00.0,0636.8,34.7
2016-01-23T02:31:00Z,0000380,01000600,0000.60,0000.28,-000.24,0000.05,-000.17,0000.32,0000.05,0000.16,-000.20,26.2,00.0,0636.8,34.7
2016-01-23T02:32:00Z,0000380,01000600,0000.09,-000.20,0000.71,0000.41,-000.17,0000.07,-000.08,-000.04,-000.03,26.2,00.0,0636.8,34.7
2016-01-23T02:33:00Z,0000380,01000600,-000.16,-000.40,-000.09,-000.12,0000.26,-000.03,0000.08,0000.12,0000.12,26.2,00.0,0636.8,34.7
2016-01-23T02:34:00Z,0000380,01000600,0000.00,0000.78,-000.03,0000.55,-000.13,0000.55,0000.23,-000.14,0000.37,26.2,00.0,0636.8,34.7
2016-01-23T02:35:00Z,0000380,01000600,0000.61,0000.24,0000.07,-000.18,-000.59,0000.20,0000.15,0000.13,-000.12,26.2,00.0,0636.8,34.7
2016-01-23T02:36:00Z,0000380,01000600,-000.08,0000.50,0000.01,-000.23,-000.51,-000.28,-000.38,0000.12,-000.04,26.2,00.0,0636.8,34.7
2016-01-23T02:37:00Z,0000380,01000600,-000.72,0000.30,-000.35,0000.05,-000.26,0000.03,0000.00,-000.07,0000.15,26.2,00.0,0636.9,34.7
2016-01-23T02:38:00Z,0000380,01000600,0000.13,0000.41,0000.61,0000.00,-000.23,0000.41,0000.22,0000.01,-000.33,26.2,00.0,0636.9,34.7
2016-01-23T02:39:00Z,0000380,01000600,0000.67,-000.07,-000.07,0000.28,-000.43,0000.25,0000.00,-000.00,0000.11,26.1,00.0,0636.9,34.7
2016-01-23T02:40:00Z,0000380,01000600,0000.15,0000.30,-000.11,0000.10,0000.00,0000.22,-000.06,0000.04,0000.02,26.1,00.0,0636.9,34.7
2016-01-23T02:41:00Z,0000380,01000600,-000.92,-000.36,0000.58,0000.18,0000.03,0000.20,0000.20,0000.12,0000.35,26.1,00.0,0636.9,34.7
2016-01-23T02:42:00Z,0000380,01000600,0000.44,0000.52,0000.17,0000.08,0000.02,-000.02,-000.05,-000.14,-000.09,26.1,00.0,0636.8,34.7
2016-01-23T02:43:00Z,0000380,01000600,0000.02,0000.29,0000.00,-000.15,-000.53,0000.28,0000.09,0000.07,-000.01,26.1,00.0,0636.9,34.7
2016-01-23T02:44:00Z,0000380,01000600,0000.57,0000.05,-000.05,0000.10,0000.05,0000.20,0000.07,0000.16,-000.20,26.1,00.0,0636.9,34.7
2016-01-23T02:45:00Z,0000380,01000600,0000.41,0000.87,-000.25,-000.10,0000.31,-000.18,0000.09,0000.00,0000.17,26.1,00.0,0636.9,34.7
2016-01-23T02:46:00Z,0000380,01000600,0001.06,-000.29,-000.11,0000.96,-000.40,-000.12,-000.16,-000.23,0000.10,26.1,00.0,0636.9,34.7
2016-01-23T02:47:00Z,0000380,01000600,-000.28,-000.03,-000.36,-000.66,-000.36,0000.10,0000.00,0000.11,-000.14,26.1,00.0,0636.9,34.7
2016-01-23T02:48:00Z,0000380,01000600,-000.10,0000.46,0000.33,-000.25,-000.41,0000.25,-000.01,0000.17,0000.22,26.1,00.0,0636.9,34.7
2016-01-23T02:49:00Z,0000380,01000600,0000.83,-000.09,-000.15,-000.07,-000.18,0000.13,0000.17,0000.03,0000.02,26.0,00.0,0636.8,34.7
2016-01-23T02:50:00Z,0000380,01000600,0001.19,0000.54,0000.42,0000.22,-000.46,0000.08,-000.18,-000.15,-000.27,26.1,00.0,0636.8,34.7
2016-01-23T02:51:00Z,0000380,01000600,0000.73,0000.31,-000.07,-000.15,0000.17,-000.41,0000.31,0000.23,0000.56,26.1,00.0,0636.8,34.7
2016-01-23T02:52:00Z,0000380,01000600,0000.29,0000.30,0000.47,-000.46,0000.13,0000.12,-000.19,-000.12,-000.30,26.1,00.0,0636.8,34.7
2016-01-23T02:53:00Z,0000380,01000600,0000.03,-000.13,0000.53,0000.13,-000.18,0000.02,0000.15,0000.07,0000.12,26.1,00.0,0636.8,34.7
2016-01-23T02:54:00Z,0000380,01000600,0000.13,-000.16,0000.36,0000.07,-000.13,0000.61,-000.13,0000.13,-000.04,26.1,00.0,0636.9,34.7
2016-01-23T02:55:00Z,0000380,01000600,0000.29,-000.07,0000.00,-000.27,-000.33,0000.15,-000.15,-000.04,0000.12,26.1,00.0,0636.9,34.7
2016-01-23T02:56:00Z,0000380,01000600,0000.78,0000.10,-000.13,-000.36,0000.17,0000.18,0000.26,0000.05,-000.04,26.1,00.0,0636.9,34.7
2016-01-23T02:57:00Z,0000380,41000600,,,,,,,,,,,,0636.9,34.7
2016-01-23T02:58:00Z,0000380,61000600,,,,,,,,,,26.0,00.0,0636.2,34.7
2016-01-23T02:59:00Z,0000380,21000600,,,,,,,,,,26.0,00.0,0636.2,34.7
2016-01-23T03:00:00Z,0000380,21000600,,,,,,,,,,26.0,00.0,0636.2,34.7
2016-01-23T03:01:00Z,0000380,21000600,,,,,,,,,,26.0,00.0,0636.2,34.7
2016-01-23T03:02:00Z,0000380,21000600,,,,,,,,,,26.0,00.0,0636.3,34.7
2016-01-23T03:03:00Z,0000380,61000600,,,,,,,,,,26.0,00.0,0636.3,34.7
2016-01-23T03:04:00Z,0000380,41000600,0000.73,0000.21,0000.23,0000.46,0000.81,0000.00,0000.15,0000.13,0000.15,26.2,00.0,0637.0,34.7
2016-01-23T03:05:00Z,0000380,01000600,0000.13,-000.20,0000.51,-000.98,0000.02,0000.25,-000.00,0000.03,0000.09,26.2,00.0,0637.1,34.7
2016-01-23T03:06:00Z,0000380,01000600,0000.81,0000.33,0000.42,-000.60,0000.10,-000.15,-000.07,0000.20,0000.03,26.2,00.0,0637.1,34.7
2016-01-23T03:07:00Z,0000380,01000600,0001.30,-000.54,-000.33,-000.15,0000.17,0000.07,0000.09,-000.08,-000.21,26.2,00.0,0637.0,34.7
2016-01-23T03:08:00Z,0000380,01000600,-000.29,0000.26,-000.17,-000.43,0000.31,0000.30,-000.00,0000.02,0000.09,26.2,00.0,0637.0,34.7
2016-01-23T03:09:00Z,0000380,01000600,0000.95,0000.30,0000.14,-000.38,0000.41,0000.20,0000.06,-000.14,0000.17,26.2,00.0,0637.0,34.7
2016-01-23T03:10:00Z,0000380,01000600,0000.36,0000.43,-000.02,0000.50,0000.13,-000.15,0000.09,0000.19,-000.16,26.2,00.0,0636.9,34.7
2016-01-23T03:11:00Z,0000380,01000600,0000.57,0000.16,0000.15,-000.28,0000.10,0000.30,0000.08,0000.09,0000.19,26.2,00.0,0637.0,34.7
2016-01-23T03:12:00Z,0000380,01000600,0000.49,0000.01,-000.28,0000.35,-000.12,-000.02,-000.08,-000.13,-000.06,26.2,00.0,0637.0,34.7